Location: The Saddle
(36.8333°N, 80.3417°W)
Time: 05:03:25
(UTC-04:00)

Tiros 1 - Pass Details

Date: 28 January 2022
Orbit: 630 x 663 km, 48.4° (Epoch: 29 May)

Event Time Altitude Azimuth Distance (km) Brightness Sun altitude
Exits shadow 05:07:17 17° 171° (S) 1,642 9.3 -27.9°
Drops below altitude 10° 05:08:28 10° 163° (SSE) 2,028 9.9 -27.7°
Sets 05:10:57 0° 153° (SSE) 2,927 10.9 -27.2°
